Regional Weather Roundup
Issued by NWS

Home | Current Version | Previous Version | Graphics & Text | Print | Product List | Glossary On
Versions: 1 2 3 4 5 6 7 8 9 10 11 12 13 14 15 16 17 18 19 20 21 22 23 24 25 26 27 28 29 30 31 32 33 34 35 36 37 38 39 40 41 42 43 44 45 46 47 48 49 50
000
ASUS45 KTFX 260504
RWRMT
MONTANA HOURLY WEATHER ROUNDUP
NATIONAL WEATHER SERVICE GREAT FALLS MT
1004 PM MST THU DEC 25 2014

NOTE: "FAIR" INDICATES FEW OR NO CLOUDS BELOW 12000 FEET WITH NO
SIGNIFICANT WEATHER AND/OR OBSTRUCTIONS TO VISIBILITY.

* THESE STATIONS ARE NOT UNDER NWS QUALITY CONTROL. THEY DO NOT
   REPORT WEATHER SUCH AS PRECIPITATION OR FOG.

MTZ001>007-043-260600-
WEST OF THE DIVIDE
CITY           SKY/WX    TMP DP  RH WIND       PRES   REMARKS
KALISPELL      CLOUDY    25  25 100 CALM      30.01F
MISSOULA       LGT SNOW  27  27 100 N3        30.04S VSB 3
BUTTE          CLOUDY     7   3  83 S5        29.93S WCI  -2
MULLAN PASS    LGT SNOW  21  18  88 W9        29.92S VSB 3/4  WCI  11
* ESSEX        N/A       22  21  96 N/A        N/A
* LINCOLN      N/A       16  14  92 NE1        N/A
* LOOKOUT PASS N/A       23  22  96 NE4        N/A
* POLSON       N/A       25  24  96 N/A        N/A
* RONAN APT    MOCLDY    28  27  96 N/A        N/A
* SEELEY LAKE  N/A       22  21  96 N/A        N/A
* THOMP F APT  CLOUDY    14   6  70 NW6G29     N/A   WCI   5
* YAAK HILL    N/A       29  26  89 N/A        N/A
$$

MTZ008-052>055-260600-
SOUTHWEST MONTANA
CITY           SKY/WX    TMP DP  RH WIND       PRES   REMARKS
BOZEMAN        PTCLDY     1   0  95 S7        29.98S WCI -12
DILLON         PTCLDY    12   7  80 S9        29.94S
* W YELLOWSTON PTCLDY    -1  -6  79 N/A        N/A
* THREE FORKS  PTCLDY     7   7 100 N/A        N/A
* BOULDER HILL N/A       14   8  77 SW8        N/A   WCI   3
* MONIDA PASS  N/A        9   6  87 W12        N/A   WCI  -6
* RAYNOLDS PAS N/A       11 -24  18 NE10G16    N/A   WCI  -2
* WHITEHALL    N/A       12   7  80 E1G8       N/A
* WISE RIVER   N/A        9   4  80 SE2        N/A
$$

MTZ009>010-012-014-046-048-049-054-260600-
EAST SLOPES AND CENTRAL MONTANA
CITY           SKY/WX    TMP DP  RH WIND       PRES   REMARKS
CUT BANK       PTCLDY    18  12  77 SW7G20    29.89S WCI   9
GREAT FALLS    CLEAR     16  10  77 S10       29.92S WCI   4
HELENA         CLEAR     16  10  77 CALM      29.97R
* DEARBORN     N/A       12  10  92 S2         N/A
* EAST GLACIER N/A       21  16  81 W4         N/A
* MONARCH      N/A        8   4  84 S6         N/A   WCI  -2
* PENDROY      N/A       21   9  60 NW16       N/A   WCI   7
* SWEET GRASS  N/A       15  15 100 SW11       N/A   WCI   2
$$

MTZ011-013-016-021-035-040-045-047-050-051-260600-
NORTH CENTRAL MONTANA
CITY           SKY/WX    TMP DP  RH WIND       PRES   REMARKS
HAVRE          PTCLDY    19  16  88 SE5       29.98S WCI  12
LEWISTOWN      CLEAR      9   3  76 SE6       29.93R WCI  -1
* N BAR RANCH  CLEAR      7   3  83 NW6       29.94R WCI  -4
* CHESTER      N/A       12   9  88 N/A        N/A
* DENTON       N/A        8   5  87 S4         N/A
* GEYSER       N/A        7   2  80 SW8        N/A   WCI  -6
* JUDITH GAP   N/A       11   9  92 SE6        N/A   WCI   1
* LOMA         N/A       17  15  92 NE4        N/A
$$

MTZ017>020-022>027-061-062-260600-
NORTHEAST MONTANA
CITY           SKY/WX    TMP DP  RH WIND       PRES   REMARKS
GLASGOW        CLOUDY    19  14  81 SE7       30.04S WCI  10
GLENDIVE       CLOUDY    19  14  81 N3        30.07R
JORDAN         CLEAR     25  19  78 CALM      30.02R
SIDNEY         CLOUDY    19  12  74 NW7       30.11R WCI  10
WOLF POINT     CLOUDY    16  10  77 E6        30.10R WCI   7
* BEAVER HILL  N/A       18  14  84 NW10G15    N/A   WCI   6
* CIRCLE       N/A       20  16  84 NE4        N/A
* LINDSAY DVD  N/A       18  15  88 NW4        N/A
* NAVAJO       N/A       11   8  88 W9G14      N/A   WCI  -2
* SACO         N/A       22  16  78 E5         N/A   WCI  15
$$

MTZ028>042-056>058-260600-
SOUTHCENTRAL AND SOUTHEAST MONTANA
CITY           SKY/WX    TMP DP  RH WIND       PRES   REMARKS
BAKER          CLOUDY    19  16  88 NW10      30.03R WCI   8
BILLINGS       LGT SNOW  23  19  85 S5        29.99S WCI  16
LIVINGSTON     PTCLDY     5   0  80 NW9       29.95R WCI  -9
MILES CITY     CLOUDY    23  18  81 NE5       30.05R WCI  16
* LAUREL APT   CLEAR     21  14  74 N/A        N/A
* ROUNDUP APT  CLEAR     19  12  74 N/A        N/A
* ALZADA       N/A       20  17  88 NW6        N/A   WCI  12
* HYSHAM       N/A       22  16  78 E2         N/A
* LAME DEER    N/A       18  16  92 NW2        N/A
* REED POINT   N/A       12  10  92 N/A        N/A
* ROSCOE HILL  N/A       13   9  84 S1         N/A
$$

REGIONAL REPORTS...DAKOTAS
CITY           SKY/WX    TMP DP  RH WIND       PRES   REMARKS
WILLISTON      CLOUDY    18  10  71 NW8       30.09R WCI   8
DICKINSON      CLOUDY    21  16  81 NW13      30.00R WCI   8
BEACH          CLOUDY    18  16  92 N12       30.04S WCI   5
CROSBY         CLOUDY    10  10 100 N7        30.09R WCI  -1
WATFORD CITY   CLOUDY    19  16  88 NW9       30.05R WCI   8
BISMARCK       CLOUDY    25  21  85 N9        30.03R WCI  16
GRAND FORKS    CLOUDY    27  21  78 N8        30.01R WCI  19
FARGO          CLOUDY    27  21  78 N13       29.99R WCI  16
BUFFALO SD     CLOUDY    21  16  81 NW10      29.93R WCI  10
RAPID CITY     CLOUDY    21  18  88 N16       29.97R WCI   7
$$

REGIONAL REPORTS...WYOMING/IDAHO/WASHINGTON
CITY           SKY/WX    TMP DP  RH WIND       PRES   REMARKS
GILLETTE       CLOUDY    18  16  92 N10       29.96R WCI   6
SHERIDAN       CLOUDY    19  16  88 W6        29.99R WCI  11
CODY           CLOUDY    19  16  88 N6        29.91R WCI  11
YELLOWSTONE LA MOCLDY     7   1  76 CALM      29.81R
SALMON         CLOUDY    21  16  81 CALM      30.00S
MULLAN PASS    LGT SNOW  21  18  88 W9        29.92S VSB 3/4  WCI  11
SAND POINT     CLOUDY    32  32 100 SW7       30.08S WCI  25
SPOKANE        CLOUDY    30  27  89 SE5       30.08S WCI  25
$$

REGIONAL REPORTS...ALBERTA
CITY           SKY/WX    TMP DP  RH WIND       PRES   REMARKS
EDMONTON       CLOUDY    18  14  84 NW9       30.00R WCI   7
$$

REGIONAL REPORTS...SASKATCHEWAN
CITY           SKY/WX    TMP DP  RH WIND       PRES   REMARKS
SWIFT CURRENT  FOG        7   5  91 E5        29.99F VSB 1 1/4 WCI  -2

$$




USA.gov is the U.S. government's official web portal to all federal, state and local government web resources and services.